Date,TemperatureHighF,TemperatureAvgF,TemperatureLowF,DewpointHighF,DewpointAvgF,DewpointLowF,HumidityHigh,HumidityAvg,HumidityLow,PressureMaxIn,PressureMinIn,WindSpeedMaxMPH,WindSpeedAvgMPH,GustSpeedMaxMPH,PrecipitationSumIn
2013-1-1,51,48,35,51,44,27,99,87,58,30.12,29.96,6,-6,6,0.17
2013-1-2,51,46,42,50,45,27,99,95,83,30.22,29.94,14,2,14,0.20
2013-1-3,48,41,30,42,39,27,99,92,72,30.29,30.16,4,-3,14,0.20
2013-1-4,52,38,26,35,29,24,99,72,43,30.35,30.22,10,-2,10,0.00
2013-1-5,51,38,27,35,29,23,91,71,47,30.42,30.29,5,-3,5,0.00
2013-1-6,53,44,35,43,39,27,99,83,66,30.29,30.08,4,1,4,0.01
2013-1-7,52,39,29,39,34,27,99,83,55,30.46,30.20,9,-3,9,0.00
2013-1-8,58,44,31,45,39,27,99,84,57,30.49,30.38,4,1,4,0.00
2013-1-9,69,51,36,56,47,27,99,86,59,30.48,30.37,5,1,5,0.00
2013-1-10,65,55,47,52,48,27,99,81,59,30.56,30.43,4,1,4,0.00
2013-1-11,52,48,42,52,46,37,99,91,61,30.46,30.17,8,1,8,0.22
2013-1-12,74,58,50,68,57,27,99,96,80,30.19,30.11,4,0,4,0.00
2013-1-13,77,64,54,67,61,27,99,89,66,30.17,30.06,8,1,8,0.01
2013-1-14,72,66,61,67,63,27,99,91,82,30.19,30.09,5,1,8,0.00
2013-1-15,67,48,35,65,48,10,99,98,72,30.27,30.08,12,-2,12,0.01
2013-1-16,51,47,44,51,47,27,99,98,97,30.11,30.00,5,1,5,0.09
2013-1-17,51,47,34,51,47,27,99,99,97,30.77,29.91,14,2,14,0.50
2013-1-18,46,36,29,36,31,27,99,84,51,30.56,30.17,8,1,8,0.31
2013-1-19,62,39,26,38,32,25,99,77,41,30.53,30.01,6,1,6,0.01
2013-1-20,72,49,40,43,38,34,83,67,39,30.19,29.95,8,2,8,0.00
2013-1-21,60,46,30,41,33,23,99,65,36,30.11,29.89,8,1,8,0.00
2013-1-22,42,34,26,28,11,2,54,38,23,30.31,29.99,13,3,13,0.00
2013-1-23,42,30,19,21,14,3,80,51,30,30.40,30.07,7,-6,7,0.00
2013-1-24,39,32,25,27,16,4,85,52,27,30.53,29.98,14,3,14,0.00
2013-1-25,29,26,22,28,16,6,98,67,41,30.56,30.13,4,1,4,0.05
2013-1-26,41,32,28,36,30,26,99,92,70,30.44,30.11,5,0,5,0.07
2013-1-27,42,33,24,32,28,24,99,84,64,30.63,30.43,8,0,59,0.00
2013-1-28,53,44,34,49,39,29,95,82,67,30.57,30.27,6,1,6,0.02
2013-1-29,90,59,47,62,55,-10,99,86,64,30.29,30.09,6,2,6,0.00
2013-1-30,73,68,61,68,65,59,98,90,78,30.10,29.41,18,4,18,0.18
2013-1-31,64,48,34,63,35,24,99,63,37,30.08,29.48,16,0,16,0.30
2013-2-1,41,36,26,32,16,3,71,46,24,30.45,29.93,19,4,19,0.01
2013-2-2,46,35,20,39,17,8,86,50,31,30.47,30.08,11,2,11,0.00
2013-2-3,51,43,32,40,34,26,98,72,48,30.08,29.89,9,2,9,0.00
2013-2-4,51,39,27,32,27,22,93,64,42,30.20,30.05,5,1,5,0.00
2013-2-5,63,48,39,41,36,31,89,65,39,30.06,29.91,9,2,9,0.00
2013-2-6,63,47,32,43,33,26,99,65,27,30.33,30.02,8,1,8,0.00
2013-2-7,50,44,38,45,40,35,99,88,68,30.38,30.02,8,2,8,0.32
2013-2-8,58,47,40,50,43,32,99,87,62,30.10,29.85,13,4,13,0.73
2013-2-9,53,41,29,32,27,22,97,63,30,30.43,30.10,10,2,10,0.00
2013-2-10,56,41,27,45,28,23,96,63,32,30.54,30.25,7,1,7,0.02
2013-2-11,64,58,46,62,57,45,99,97,91,30.26,29.96,8,2,8,0.09
2013-2-12,63,54,47,57,42,32,99,67,32,30.13,29.94,7,1,7,0.00
2013-2-13,50,47,44,49,46,39,99,95,75,30.00,29.66,8,1,8,0.17
2013-2-14,86,42,31,41,36,31,99,81,55,30.12,29.88,7,1,7,0.17
2013-2-15,63,45,30,45,36,29,99,77,40,30.14,29.96,7,1,7,0.00
2013-2-16,48,38,32,40,35,28,99,90,71,30.01,29.88,8,2,8,0.25
2013-2-17,52,31,24,28,16,5,84,57,29,30.35,29.98,16,2,16,1.67
2013-2-18,54,36,19,30,22,17,95,62,31,30.47,30.30,7,1,7,1.67
2013-2-19,53,45,37,52,42,30,99,90,68,30.30,29.89,8,2,8,0.11
2013-2-20,56,42,29,39,26,19,99,57,25,30.19,30.01,9,1,9,0.01
2013-2-21,59,42,26,28,24,19,88,52,26,30.30,30.14,10,1,10,0.00
2013-2-22,44,38,33,38,35,26,99,90,50,30.41,30.17,5,2,7,0.24
2013-2-23,44,41,37,44,40,36,99,98,97,30.17,29.86,6,-2,6,0.51
2013-2-24,68,50,39,51,42,32,99,77,33,30.09,29.84,8,1,8,0.06
2013-2-25,45,39,34,35,28,24,88,66,51,30.29,30.09,8,2,8,0.00
2013-2-26,59,46,37,58,44,29,99,92,69,30.19,29.57,15,3,15,0.52
2013-2-27,66,50,41,47,44,40,99,81,49,29.83,29.66,9,2,9,0.01
2013-2-28,53,42,33,43,35,29,99,79,44,29.90,29.74,10,-55,10,0.00
2013-3-1,52,40,28,36,32,28,99,75,49,29.95,29.87,10,-27,10,0.00
2013-3-2,52,39,28,36,29,22,99,70,46,29.98,29.84,11,2,11,0.00
2013-3-3,53,37,26,29,23,19,82,59,36,30.04,29.88,12,3,12,0.00
2013-3-4,55,37,24,26,20,15,74,53,24,30.17,30.03,11,2,11,0.00
2013-3-5,52,44,36,46,38,24,99,80,48,30.13,29.60,8,1,8,0.14
2013-3-6,49,43,38,49,38,30,99,83,57,29.77,29.54,16,5,16,0.15
2013-3-21,49,41,32,35,22,14,85,49,31,30.02,29.78,13,4,13,0.00
2013-3-22,60,40,23,31,20,13,75,48,24,30.13,29.96,9,2,9,0.00
2013-3-23,61,47,38,36,31,26,79,55,35,30.09,29.94,4,1,5,0.00
2013-3-24,43,40,36,41,38,31,99,94,78,29.98,29.61,7,2,9,0.39
2013-3-25,52,42,37,42,34,28,99,76,43,29.86,29.59,11,2,13,0.00
2013-3-26,53,44,33,36,31,27,84,62,48,30.15,29.85,11,2,11,0.00
2013-3-27,58,44,34,34,29,25,80,58,33,30.27,29.94,13,3,13,0.00
2013-3-28,62,45,30,39,29,26,87,57,30,30.34,29.85,11,-1,11,0.00
2013-3-29,64,47,29,42,31,16,95,59,29,30.39,29.89,11,1,11,0.00
2013-3-30,73,56,41,48,41,20,89,61,29,30.28,30.03,7,1,7,0.00
2013-3-31,72,58,36,64,54,20,99,87,52,30.18,29.83,8,2,8,0.37
2013-4-1,79,63,55,65,51,42,99,70,33,30.09,29.81,10,2,10,0.12
2013-4-2,71,52,37,43,34,27,88,54,26,30.20,29.74,11,2,11,0.00
2013-4-3,65,52,43,38,29,4,70,43,23,30.34,30.12,11,2,11,0.00
2013-4-4,51,44,40,43,37,29,99,78,53,30.40,29.96,9,2,9,0.30
2013-4-5,68,50,40,52,46,38,99,87,56,30.40,29.91,8,2,8,0.15
2013-4-6,72,55,40,44,38,27,99,59,25,30.40,30.05,8,2,8,0.00
2013-4-7,78,60,37,52,44,35,99,61,36,30.34,30.11,7,1,7,0.00
2013-4-8,84,69,55,62,57,52,99,69,44,30.22,30.05,8,2,8,0.00
2013-4-9,76,64,60,65,60,58,99,88,68,30.20,30.11,5,2,5,0.00
2013-5-13,72,63,50,48,42,38,83,48,31,30.22,30.05,8,2,8,0.00
2013-5-14,78,61,41,51,45,41,99,61,31,30.31,30.09,7,1,7,0.00
2013-5-15,95,74,57,69,59,46,85,61,40,30.11,29.88,5,-2,9,0.00
2013-5-16,91,78,67,70,65,62,88,66,42,29.97,29.88,7,2,7,0.00
2013-5-17,95,78,63,71,66,62,99,70,40,30.07,29.95,5,1,5,0.00
2013-5-18,86,72,65,73,68,64,99,88,59,30.14,30.04,4,1,4,0.25
2013-5-19,86,72,66,75,69,66,99,91,62,30.15,30.03,8,1,8,0.33
2013-5-20,78,71,68,76,70,68,99,98,91,30.12,22.24,9,1,9,1.19
2013-5-21,92,76,69,76,72,69,99,88,57,30.06,29.92,8,2,8,0.00
2013-5-22,91,77,69,74,71,68,98,82,54,30.02,29.88,8,2,8,0.00
2013-5-23,87,76,71,74,71,69,98,84,61,29.94,29.78,9,1,9,0.00
2013-5-24,74,66,55,70,57,7,99,74,42,30.20,29.80,11,2,11,0.04
2013-5-25,80,61,43,55,47,41,99,66,29,30.32,30.15,6,1,6,0.00
2013-5-26,81,63,49,57,52,47,99,71,37,30.32,27.17,6,1,6,0.00
2013-5-27,90,70,40,63,56,-13,99,68,10,30.32,30.15,5,1,5,0.00
2013-5-28,91,76,65,71,66,-13,97,73,51,30.28,30.12,7,2,7,0.00
2013-5-29,92,78,65,70,67,-13,99,72,47,30.26,30.01,8,2,8,0.00
2013-5-30,95,78,40,72,68,-13,99,73,10,30.30,30.14,6,1,6,0.00
2013-5-31,94,80,67,74,70,12,99,74,46,30.24,30.06,6,2,6,0.00
2013-6-1,96,81,32,74,70,12,99,72,43,30.16,29.70,8,-8,8,0.00
2013-6-2,93,80,69,73,70,12,98,74,48,30.05,29.70,8,2,8,0.00
2013-6-3,84,74,68,77,72,9,99,93,75,30.07,29.80,8,1,8,0.53
2013-6-4,85,72,65,70,67,12,99,85,56,30.09,29.92,5,1,5,0.00
2013-6-5,88,75,65,67,64,10,98,71,44,30.14,29.65,7,1,7,0.00
2013-6-6,74,70,66,66,63,62,97,79,67,30.02,29.94,4,1,4,0.01